User: anonymous   Login
Location: Unspecified
(0.0000°N, 0.0000°E)
Time: 03:22:10
(UTC+00:00)
Language:

STARLINK-5966 - Orbit

View from above orbital plane
View from above orbital plane
View from above satellite
View from above satellite

Ground track
Ground track

The orbit is defined by the following mean orbital elements,

1 56919U          26145.59388617 +.00000000 +00000-0 +53920-4 0 00001
2 56919  43.0027 356.0217 0001595 262.8197  97.2473 15.27577592    09
Epoch (UTC): 25 May 2026 14:15:11
Eccentricity: 0.0001595
inclination: 43.0027°
perigee height: 482 km
apogee height: 484 km
right ascension of ascending node: 356.0217°
argument of perigee: 262.8197°
revolutions per day: 15.27577592
mean anomaly at epoch: 97.2473°

The dashed part of the orbit path shows where the satellite is in the earth's shadow,  

DLR